Weather in Gornyj Shchit

Russia / Sverdlovsk Oblast     56°41′21″N   60°31′10″E
temp.,
°C
wind,
m/s
gust,
m/s
humid.,
%
clouds,
%
prec.,
mm/h
press.,
hPa
HPBL,
m
28 july, wed
wed2823:00+10wnw24735 0.0 101173
02:00+7wnw22845 0.0 101219
05:00+6w279231 0.0 1012141
08:00+11wnw476191 0.0 10111140
11:00+12wnw4850100 0.0 10111547
14:00+12wnw586972 0.3 10111193
17:00+14nw5748100 0.6 10112020
20:00+13wnw3761100 0.0 1011809
29 july, thu
thu2923:00+8wnw24798 0.0 101278
02:00+6w38955 0.0 1012176
05:00+5wsw3109221 0.0 1012230
08:00+12w4106330 0.0 1011455
11:00+18w6104682 0.0 10091869
14:00+20w61140100 0.0 10082886
17:00+20w5124628 0.0 10072219
20:00+17w4968100 0.1 1008633
30 july, fri
fri3023:00+12sw389246 0.4 1007125
02:00+11wsw3109659 0.0 1007272
05:00+14wsw3109599 0.4 1007348
08:00+16ssw2485100 0.0 1006286
11:00+18se34708 0.0 1005803
14:00+21ssw3353100 0.0 10031603
17:00+19wsw456585 0.1 1004983
20:00+17w487936 0.0 1005549
31 july, sat
sat3123:00+14sw399468 0.0 1005252
02:00+16w413895 0.0 1004483
05:00+15w413924 0.0 1005548
08:00+17wnw5107927 0.0 1007608
11:00+23wnw465412 0.0 10081219
14:00+26wnw464099 0.0 10082259
17:00+26w3544100 0.0 10081844
20:00+21wsw236964 0.0 100951
1 august, sun
sun123:00+18ssw257156 0.0 101070
02:00+16sw3107973 0.0 1009172
05:00+18sw3127157 0.0 1009282
08:00+21wsw4116566 0.0 1009428
11:00+26wsw584895 0.0 10081175
14:00+29wsw594066 0.0 10082496
17:00+26w485530 0.0 10081246
20:00+23sw267044 0.1 1009172